Theta_e
317 317 317 317 317 316 316 315 314 313 312 311 310 309 309 309 308 308 307 306 305 305 304 304 304 304 303 303 303 303 303 303 302 302 302 302 301 301 300 300 300 299 299 299 298 298 298 298 298 298 298 297 297 297 297 297 296 296 296 296 296 296 296 296 296 296 296 296 296 296 296 296 296 295 295 295 295 295 295 295 295 295 295 295 295 295
317 317 317 317 316 316 315 314 313 311 310 310 309 309 309 308 308 307 306 305 305 304 304 303 303 303 303 303 303 303 302 302 302 302 301 301 300 300 299 299 298 298 297 297 296 296 296 296 295 295 295 295 294 294 294 293 293 293 293 293 293 292 292 292 292 293 293 293 293 293 293 292 292 292 292 292 292 292 292 292 292 292 292 292 292 292
318 317 317 316 316 315 314 313 311 310 310 309 309 308 308 308 307 306 305 304 304 303 303 303 303 303 302 302 302 302 302 302 301 301 301 300 299 299 298 297 296 296 295 294 294 294 293 293 293 293 292 292 292 292 291 291 291 291 291 290 290 290 290 290 290 290 290 290 290 290 290 290 290 290 290 290 290 290 290 290 290 290 290 290 290 290
318 317 317 316 315 314 312 311 310 309 309 309 308 308 307 307 306 305 304 304 303 303 303 303 302 302 302 302 302 302 301 301 301 300 300 299 298 297 296 295 294 294 293 293 292 292 292 291 291 291 291 290 290 290 290 290 290 290 290 289 289 289 289 289 289 289 289 289 289 289 289 289 289 289 289 289 289 289 289 289 289 289 289 289 289 289
317 316 315 314 313 312 311 310 309 309 309 308 308 307 306 306 305 304 304 303 303 302 302 302 302 302 302 301 301 301 301 300 300 299 298 297 296 295 294 293 292 292 291 291 291 291 290 290 290 290 290 290 290 290 289 289 289 289 289 289 289 289 289 289 289 289 289 289 289 289 289 289 288 288 288 288 288 288 288 288 288 288 288 288 288 288
315 315 313 312 311 310 310 309 309 309 308 308 307 306 305 305 304 304 303 303 302 302 302 302 302 301 301 301 301 301 300 299 298 297 296 294 293 292 292 291 291 290 290 290 290 290 290 290 290 289 289 289 289 289 289 289 289 289 289 289 289 289 289 289 289 289 289 289 289 289 288 288 288 288 288 288 288 288 288 288 288 288 288 288 288 288
314 313 311 311 310 309 309 309 308 308 307 307 306 305 304 304 303 303 302 302 302 302 301 301 301 301 301 300 300 299 298 297 296 294 293 292 291 291 290 290 289 289 289 289 289 289 289 289 289 289 289 289 289 289 289 289 289 289 289 289 289 289 289 289 289 289 289 289 288 288 288 288 288 288 288 288 288 287 287 287 287 287 287 287 288 288
312 311 310 310 309 309 308 308 308 307 306 305 305 304 303 303 303 302 302 301 301 301 301 301 301 300 300 299 298 297 296 294 293 292 291 290 290 289 289 289 289 288 288 288 288 289 289 289 289 289 289 289 289 289 289 289 289 289 289 289 289 288 288 288 288 288 288 288 288 288 288 288 288 288 288 288 287 287 287 287 287 287 287 287 287 288
311 310 310 309 309 308 308 307 307 306 305 304 304 303 303 302 302 301 301 301 301 300 300 300 300 299 298 297 296 295 293 292 291 290 289 289 289 289 288 288 288 288 288 288 288 288 289 289 289 289 289 289 289 289 289 289 289 289 289 288 288 288 288 288 288 288 288 288 288 288 288 288 288 288 287 287 287 287 287 287 287 287 287 287 287 287
310 309 309 308 308 307 307 306 305 305 304 303 303 302 302 301 301 301 300 300 300 299 299 299 298 297 296 295 294 292 291 290 290 289 289 289 289 289 288 288 288 288 288 288 288 289 289 289 289 289 289 289 289 289 289 289 289 289 289 289 288 288 288 288 288 288 288 288 288 288 287 287 287 287 287 287 288 288 287 287 287 287 287 287 287 287
309 309 308 307 307 307 306 305 304 303 303 302 302 301 301 300 300 300 299 299 299 298 298 297 296 295 294 293 291 290 290 289 289 289 288 288 289 289 288 288 288 288 288 288 289 289 289 288 288 288 289 289 289 289 289 289 289 289 289 289 288 288 288 288 288 288 288 288 287 287 287 287 287 287 288 288 288 288 288 288 288 287 287 287 287 287
308 308 307 307 306 306 305 304 303 303 302 302 301 300 300 299 299 299 298 298 298 297 296 296 294 293 292 291 290 289 289 289 288 288 288 288 288 288 288 288 288 288 288 288 288 288 288 288 288 288 288 288 288 288 289 289 289 289 289 289 288 288 288 288 288 288 288 287 287 287 287 288 288 288 288 288 288 288 288 288 288 288 287 287 287 287
307 307 306 306 305 305 304 303 302 302 301 301 300 299 299 298 298 298 297 297 296 296 295 294 292 291 290 290 289 289 289 288 288 288 288 288 288 288 288 288 288 288 288 288 288 288 288 288 288 288 288 288 288 288 288 289 289 289 289 288 288 288 288 288 288 288 288 287 288 288 288 288 288 288 288 288 288 288 288 288 288 288 287 287 287 287
306 305 305 305 304 303 303 302 302 301 300 300 299 299 298 298 297 297 296 295 295 294 293 292 291 290 289 289 289 289 288 288 287 287 287 287 288 288 288 288 288 288 288 288 288 288 288 288 288 288 288 288 288 288 288 288 289 289 288 288 288 288 288 288 288 288 288 288 288 288 288 288 288 288 288 288 288 288 288 288 288 288 287 287 287 287
305 304 304 304 303 303 302 302 301 300 300 299 299 298 297 297 296 296 295 294 293 292 291 290 289 289 289 288 288 288 288 287 287 287 287 287 288 288 288 288 288 288 288 288 288 288 288 288 288 288 288 288 288 288 288 288 288 289 288 288 288 288 288 288 288 288 288 288 289 289 289 289 289 289 289 289 289 289 288 288 288 288 288 288 287 287
304 303 303 302 302 301 301 300 300 299 299 298 298 297 296 296 295 294 293 292 291 290 290 289 289 288 288 288 288 288 288 287 287 287 287 288 288 288 288 288 287 287 287 288 287 287 288 288 288 288 288 288 288 288 288 288 288 289 289 289 289 289 289 289 289 289 289 289 289 289 289 289 289 289 289 289 289 289 289 289 289 288 288 288 288 288
302 302 302 301 301 300 300 299 298 298 297 297 296 295 295 294 293 292 291 291 290 289 289 288 288 288 288 288 288 288 288 288 287 287 287 288 288 288 287 287 287 287 287 287 287 287 288 288 288 288 288 288 288 288 288 288 289 289 289 289 289 289 289 289 289 289 289 289 289 289 289 289 289 289 289 289 289 289 289 289 289 289 289 288 288 288
301 301 300 300 299 298 298 297 297 296 295 295 294 293 293 292 291 290 290 289 289 288 288 287 287 287 287 287 287 288 288 288 287 287 287 287 288 287 287 287 287 287 287 287 287 288 288 288 288 288 288 288 288 288 288 289 289 289 289 289 289 289 289 289 289 289 289 289 289 289 289 289 289 289 289 289 289 289 289 289 289 289 289 289 289 288
300 299 298 297 297 296 295 295 294 294 293 293 292 291 291 290 290 289 289 288 288 288 287 287 287 287 287 287 287 288 288 287 287 287 287 287 287 287 287 287 287 287 287 287 287 288 288 288 288 288 288 288 288 289 289 289 289 289 289 289 289 289 289 289 289 290 289 290 289 289 289 289 289 289 289 289 289 289 289 289 289 289 289 289 289 289
297 296 295 294 294 293 293 293 292 292 291 291 290 290 289 289 289 288 288 288 287 287 287 287 287 287 287 287 287 287 288 287 287 287 286 287 287 287 287 287 287 287 287 287 288 288 288 288 288 288 288 289 289 289 289 289 289 289 289 289 290 290 290 290 290 290 290 290 290 290 289 289 289 289 289 289 289 289 289 289 289 289 289 289 289 289
294 293 292 292 292 292 291 291 291 291 290 290 289 289 289 288 288 288 288 287 287 287 287 287 287 287 287 287 287 287 287 287 287 287 286 287 287 287 287 287 287 287 287 287 288 288 288 288 289 289 289 289 289 289 289 289 289 290 290 290 290 290 290 290 290 290 290 290 290 290 289 289 289 289 289 289 289 289 289 289 289 289 289 289 289 289
292 291 291 291 291 290 290 290 290 290 289 289 289 289 288 288 288 288 287 287 287 287 287 287 287 287 287 287 287 287 287 287 287 286 286 287 287 287 287 287 287 287 287 287 288 288 288 289 289 289 289 289 289 289 289 290 290 290 290 290 290 290 290 290 290 290 290 290 290 290 290 290 289 289 289 289 289 289 289 289 289 289 289 289 289 289
290 290 290 290 290 290 290 289 289 289 289 289 289 288 288 288 288 288 287 287 287 287 287 287 287 287 287 287 287 287 287 287 287 286 286 286 287 287 287 287 287 287 287 288 288 288 289 289 289 289 289 289 289 289 289 289 290 290 290 290 290 290 290 290 290 290 290 290 290 290 290 290 289 289 289 289 289 289 289 289 289 289 289 289 289 289
289 289 289 289 289 289 289 289 289 289 289 289 288 288 288 288 288 288 288 288 288 287 287 287 287 287 287 287 287 287 287 287 287 286 286 286 287 287 287 287 287 287 287 288 288 289 289 289 289 289 289 289 289 289 289 289 289 290 289 290 289 290 290 290 290 290 290 290 290 290 290 290 289 289 289 289 289 289 289 289 289 289 289 289 289 289
288 288 288 289 289 289 289 289 289 289 288 288 288 288 288 288 288 288 288 288 288 288 287 287 287 287 287 287 287 287 287 287 287 287 286 286 286 287 287 287 287 287 287 288 288 289 289 289 289 289 289 289 289 289 289 289 289 289 289 289 289 289 289 289 289 289 290 290 290 290 290 290 290 289 289 289 289 289 289 289 289 289 289 289 289 289
288 288 288 289 289 289 289 289 288 288 288 288 288 288 288 288 287 287 287 287 287 287 287 287 287 287 287 287 287 287 287 287 287 287 287 287 286 286 286 287 287 287 287 288 288 288 289 289 289 289 289 289 289 289 289 289 289 289 289 289 289 289 289 289 289 289 289 289 289 290 290 290 290 289 289 289 289 289 289 289 289 289 289 289 289 288
288 288 288 288 288 288 288 288 288 288 288 288 288 288 288 287 287 287 287 287 287 287 287 287 287 287 287 287 287 287 287 287 287 286 286 286 286 286 286 287 287 287 287 288 288 288 289 289 289 289 289 289 289 289 289 289 289 289 289 289 289 289 289 289 289 289 289 289 289 289 289 289 289 289 289 289 289 289 289 289 289 289 289 289 289 289
288 288 288 288 288 288 288 288 288 288 288 288 288 288 288 287 287 287 287 287 287 287 287 287 287 287 287 286 287 287 287 286 286 286 286 286 286 286 286 287 287 287 287 288 288 288 288 288 288 288 288 288 289 289 289 289 289 289 289 289 289 289 289 289 289 289 289 289 289 289 289 289 289 289 289 289 289 289 289 289 289 289 289 289 289 289
288 288 288 288 288 288 288 288 288 288 288 288 288 288 288 287 287 287 287 287 287 287 287 287 287 287 287 286 287 287 286 286 286 286 286 286 286 286 287 287 287 287 288 288 288 288 288 288 288 288 288 288 288 288 288 289 289 289 289 289 289 289 289 289 289 289 289 289 289 289 289 289 289 289 289 289 289 289 289 289 289 289 289 289 289 289
288 288 288 288 288 288 288 288 288 288 288 288 288 288 288 288 287 287 287 288 288 287 287 287 287 287 287 286 286 286 286 286 286 287 286 286 287 287 287 287 287 287 288 288 288 288 288 288 288 288 288 288 288 288 288 289 289 289 289 289 289 289 289 289 289 289 289 289 289 289 289 289 289 289 289 289 289 289 289 289 289 289 289 289 289 289
288 288 288 288 288 288 288 288 288 288 288 288 288 288 288 288 287 287 287 288 288 288 287 287 287 287 287 287 286 286 286 286 287 287 287 287 287 287 287 287 287 287 288 288 288 288 288 288 288 288 288 288 288 288 289 289 289 289 289 289 289 289 289 289 289 289 289 289 289 289 289 289 289 289 288 288 288 288 289 289 289 289 289 289 289 289
288 288 288 288 288 288 288 288 288 287 288 288 288 288 288 288 288 287 288 288 287 287 287 287 287 287 287 287 287 286 286 286 287 287 287 287 287 287 287 287 287 287 288 288 288 288 288 288 288 288 288 288 288 288 289 289 289 289 289 289 289 289 289 289 289 289 289 289 289 289 289 289 289 289 289 288 288 288 288 288 288 288 289 289 289 289
288 288 288 288 288 287 287 287 287 287 287 287 287 288 288 288 288 288 287 287 287 287 287 287 287 287 287 287 286 286 286 286 287 287 287 287 287 287 287 287 287 287 288 288 288 288 288 288 288 288 288 288 288 288 289 289 289 289 289 289 289 289 289 289 289 289 289 289 289 289 289 289 289 289 289 289 288 288 288 288 288 288 288 289 289 289
288 288 287 287 287 287 287 287 287 287 287 287 287 287 287 287 287 287 287 287 287 287 287 287 287 287 286 286 286 286 286 286 287 287 287 287 287 286 286 287 287 287 288 288 288 288 288 288 288 288 288 287 288 288 289 289 289 289 289 289 289 289 289 289 289 289 289 289 289 289 289 289 289 289 289 289 289 288 288 288 288 288 288 288 288 288
287 287 287 287 287 287 287 287 287 286 286 286 286 287 287 287 287 287 287 287 287 287 287 287 287 287 286 286 286 286 286 286 286 287 287 287 287 286 286 286 287 287 287 288 288 288 288 288 288 288 288 288 288 288 288 289 289 289 289 289 289 289 289 289 289 289 289 289 289 289 289 289 289 289 289 289 289 289 288 288 288 288 288 288 288 288
287 287 287 286 286 286 286 286 286 286 286 286 286 286 286 287 287 287 287 287 287 287 287 287 287 287 287 286 286 286 286 286 287 287 287 287 287 287 286 287 287 287 287 288 288 288 289 289 288 288 288 288 288 288 288 288 289 289 289 289 289 289 289 289 289 289 289 289 289 289 289 289 289 289 289 289 289 289 288 288 288 288 288 288 288 288
287 287 287 287 287 287 286 286 286 286 286 286 286 286 287 287 287 287 287 287 287 287 287 287 287 287 287 286 286 286 286 287 287 287 287 287 287 287 287 287 287 287 287 288 288 288 288 289 288 288 288 288 288 288 288 288 288 289 289 289 289 289 289 288 288 288 288 288 288 288 288 288 288 288 288 288 288 288 288 288 288 288 288 288 288 288
287 287 287 287 287 287 287 287 287 287 287 287 287 287 287 287 287 287 287 287 287 287 287 287 287 287 286 286 286 286 286 287 287 287 287 287 287 287 287 287 287 287 287 288 288 288 288 288 289 289 288 288 288 288 288 288 288 288 288 288 288 288 288 288 288 288 288 288 288 288 288 288 288 288 288 288 288 288 288 288 288 288 288 288 288 288
287 287 287 287 287 287 287 287 287 287 287 287 287 287 287 287 286 286 286 287 287 287 287 287 287 287 286 286 286 286 286 286 286 286 287 287 287 287 287 287 287 287 287 287 288 288 288 288 288 288 288 288 288 288 288 288 288 288 288 288 288 288 288 288 288 288 288 288 288 288 288 288 288 288 288 288 288 288 288 288 287 287 287 288 288 287
286 286 286 287 287 287 287 287 287 287 287 287 287 287 286 286 286 286 286 286 286 287 287 287 287 287 286 286 286 286 286 286 286 286 286 286 286 286 286 287 287 287 287 287 287 288 288 288 288 288 288 288 288 288 288 288 288 288 288 288 288 288 288 288 287 287 287 287 287 287 287 287 287 287 287 287 287 287 287 287 287 287 287 287 287 287
286 286 286 287 287 287 287 287 287 287 287 286 286 286 286 286 286 286 286 286 286 286 286 286 286 286 286 286 286 286 286 286 286 286 286 286 286 286 286 286 286 287 287 287 287 288 288 288 288 288 288 288 288 288 288 288 288 288 288 288 287 287 287 287 287 287 287 287 287 287 287 287 287 287 287 287 286 287 287 287 287 287 287 287 287 287
286 286 286 287 287 287 287 287 287 287 286 286 286 286 286 286 286 286 286 286 286 286 286 286 286 286 286 286 286 286 286 286 286 286 286 286 286 286 286 286 286 286 287 287 287 287 288 288 288 288 288 288 288 288 288 288 288 288 288 288 287 287 287 287 287 287 287 287 287 287 287 286 286 286 286 286 286 286 286 286 286 286 286 286 286 286
287 287 287 287 287 287 287 287 287 286 286 286 286 286 286 286 286 286 286 286 286 286 286 286 286 286 286 286 286 286 286 286 286 286 286 286 286 286 286 286 286 286 287 287 287 287 287 287 287 288 288 288 288 288 288 288 288 287 287 287 287 287 287 287 287 287 287 287 287 286 286 286 286 286 286 286 286 285 285 285 285 285 286 286 286 286
287 287 287 287 287 287 287 287 286 286 286 286 286 286 286 286 286 286 286 286 286 286 286 286 286 286 286 286 285 285 285 286 286 286 286 286 286 286 286 286 286 286 286 287 287 287 287 287 287 287 287 288 288 288 288 288 288 287 287 287 287 287 287 287 287 287 286 286 286 286 286 286 286 286 286 286 285 285 285 285 285 285 285 285 285 285
287 287 287 287 287 287 287 287 286 286 286 286 286 286 286 286 286 286 286 286 286 286 286 286 286 286 286 286 285 285 285 285 285 286 286 286 286 286 286 286 286 286 286 287 287 287 287 287 287 287 287 287 288 288 288 288 288 287 287 287 287 287 287 287 287 286 286 286 286 286 286 286 286 286 286 285 285 285 285 285 285 285 285 285 285 285
287 287 287 287 287 287 287 287 286 286 286 286 286 286 286 286 286 286 286 286 286 286 286 286 286 286 286 286 285 285 285 285 285 285 285 285 286 286 286 286 286 286 286 286 287 287 287 287 287 287 287 287 287 287 288 288 288 287 287 287 287 287 287 287 286 286 286 286 286 286 286 286 286 286 286 286 286 286 286 286 286 286 286 286 286 286
287 287 287 287 287 287 287 287 287 286 286 286 286 285 285 285 286 286 286 286 286 285 285 285 286 286 286 286 285 285 285 284 284 285 285 285 285 285 286 286 286 286 286 286 287 287 287 287 287 287 287 287 287 287 288 287 287 287 287 287 287 287 287 286 286 286 286 286 286 286 286 286 286 286 286 286 286 286 286 286 286 286 286 286 286 286
287 287 287 287 287 287 287 287 286 286 286 286 285 285 285 285 286 286 286 285 285 285 285 285 285 285 285 285 285 285 285 285 284 284 285 285 285 285 286 286 286 286 286 286 286 286 287 287 287 287 287 287 287 287 288 287 287 287 287 287 287 287 287 286 286 286 286 286 286 286 286 286 286 286 286 286 286 286 286 286 286 286 286 286 286 286
287 287 287 287 287 287 286 286 286 286 286 286 285 285 285 286 286 286 286 285 285 285 285 285 285 285 285 285 285 285 285 285 284 284 284 284 285 285 285 286 286 286 286 286 286 286 286 287 287 287 287 287 287 287 287 287 287 287 287 287 287 287 287 286 286 286 286 286 286 286 286 285 285 286 286 286 286 287 287 287 287 286 286 286 286 286
287 287 287 287 287 287 286 286 286 286 286 286 285 285 285 286 286 286 286 285 285 285 285 285 285 285 285 285 285 284 284 284 284 284 284 284 284 284 285 285 285 286 286 286 286 286 286 286 287 287 287 287 287 287 287 287 287 287 286 286 286 286 286 286 286 286 286 286 286 286 285 285 285 285 286 286 286 286 287 287 287 287 286 286 286 286
287 287 287 287 287 286 286 286 286 286 286 286 286 285 285 285 285 286 285 285 285 285 285 285 285 285 284 284 284 284 284 284 284 284 284 284 284 284 284 285 285 285 286 286 286 286 286 286 287 287 287 287 287 287 287 287 287 286 286 286 286 286 286 286 286 286 286 286 286 285 285 285 285 285 285 286 286 286 287 287 287 287 286 286 286 286
Wind_Speed
20 20 20 21 21 22 22 21 21 21 20 20 19 18 18 17 16 15 13 12 11 10 10 10 10 9 9 9 10 10 10 11 11 12 12 12 12 12 12 12 12 13 13 13 13 13 13 14 14 13 13 13 13 13 13 13 13 13 13 13 13 13 13 13 13 13 14 14 14 15 15 16 16 15 15 15 14 15 15 16 16 16 16 15 15 14
20 21 21 22 22 22 22 21 20 19 19 18 18 18 17 16 15 13 12 11 10 10 10 10 9 9 9 10 10 10 11 11 12 13 13 13 14 14 14 14 14 14 14 14 14 14 14 14 14 14 14 14 14 14 14 14 13 13 13 13 13 13 13 13 13 14 14 14 15 15 15 15 15 15 15 14 14 15 15 16 16 16 15 15 14 13
21 22 22 23 22 22 22 20 19 18 17 17 17 17 17 15 14 12 11 10 9 9 9 9 9 9 9 10 10 10 11 12 13 14 14 15 15 15 15 15 15 14 14 14 14 14 14 14 14 14 13 13 13 13 13 13 13 13 13 13 13 13 13 13 13 13 14 14 14 14 14 14 14 14 14 14 14 15 15 15 15 15 15 14 13 13
22 23 23 23 23 22 21 19 18 17 17 17 17 17 16 14 13 11 10 9 9 9 9 9 9 9 10 10 10 11 12 13 14 15 15 16 16 16 16 15 15 14 14 14 14 13 13 13 13 13 13 13 13 13 13 13 13 13 13 12 12 12 12 12 13 13 13 13 13 13 14 14 14 14 14 14 14 14 14 14 14 14 14 14 14 13
23 23 24 23 22 21 19 18 18 17 17 17 17 16 15 13 12 11 10 9 9 9 9 10 10 10 10 10 11 12 13 14 15 16 16 16 16 16 15 15 14 14 14 14 14 13 13 13 13 13 13 13 13 12 12 12 12 12 12 12 12 12 12 12 12 12 13 13 13 13 13 13 13 14 14 14 14 14 14 14 14 14 14 14 14 13
24 24 23 22 20 19 18 17 17 17 17 16 16 15 13 12 11 10 10 10 10 10 10 10 10 10 11 11 12 13 14 15 15 16 16 16 16 15 15 14 14 14 13 13 14 14 13 13 13 13 13 13 13 12 12 12 12 12 12 12 12 12 12 12 12 12 12 12 12 13 13 13 13 13 13 13 13 13 13 13 13 13 13 13 13 13
24 23 22 20 18 17 17 17 17 17 16 15 15 14 13 12 11 10 10 10 10 10 11 11 11 11 11 12 13 14 15 15 16 16 16 15 15 14 14 13 13 13 13 13 14 14 13 13 13 13 13 13 12 12 12 11 11 11 11 12 12 12 12 12 12 12 12 12 12 12 12 12 12 12 12 13 13 13 13 13 13 13 13 13 13 12
22 21 20 18 17 17 17 17 17 16 15 14 14 13 12 12 11 10 10 10 11 11 11 12 12 12 12 13 13 14 15 15 15 15 14 14 14 13 13 13 13 13 13 13 13 13 13 13 13 13 13 12 12 11 11 11 11 11 11 11 11 11 11 11 11 11 11 11 11 11 11 11 12 12 12 12 12 12 11 11 12 12 12 12 12 12
20 19 18 17 16 16 16 16 16 15 14 13 13 12 12 11 11 11 11 11 11 12 12 12 12 13 13 13 13 14 14 14 13 13 13 13 13 12 12 12 12 12 12 12 12 12 12 12 12 12 12 11 11 11 10 10 10 10 10 10 10 10 10 11 11 11 11 11 11 11 11 11 11 11 11 11 11 10 10 10 10 11 11 11 11 10
19 18 17 17 16 16 15 15 15 14 13 12 12 12 11 11 11 11 11 12 12 12 12 13 13 13 13 13 13 13 13 13 12 12 12 12 12 11 11 11 11 11 11 11 11 11 11 11 11 11 11 11 10 10 10 10 10 9 9 9 9 10 10 10 10 10 10 10 10 10 10 10 10 10 10 10 10 10 9 9 10 10 10 10 10 9
18 18 17 16 16 16 15 14 14 13 12 12 12 12 12 12 12 12 12 12 13 13 13 13 13 12 12 12 12 12 12 12 12 11 11 11 11 10 10 10 10 10 10 10 10 10 10 10 10 10 10 10 10 10 10 9 9 9 9 9 9 9 9 9 9 9 9 9 9 9 9 9 9 9 9 9 9 9 9 9 9 9 9 8 8 8
17 17 17 16 16 15 14 14 14 13 13 12 12 12 12 13 12 12 12 12 13 13 13 13 13 12 11 11 11 12 11 11 11 10 11 11 10 10 10 9 9 10 10 10 10 10 10 10 10 10 10 10 10 10 9 9 9 9 8 8 8 8 8 8 8 8 8 8 8 8 8 8 8 8 8 8 8 8 8 8 8 8 7 7 7 7
17 16 16 15 15 15 14 14 13 14 13 13 13 13 13 13 12 12 12 12 13 13 13 13 13 12 11 11 11 11 11 10 10 10 10 10 10 10 10 10 10 10 10 10 10 10 10 10 10 10 9 9 9 9 9 8 8 8 8 7 7 7 7 7 7 7 7 7 7 7 7 7 7 7 7 7 7 7 7 7 7 6 6 6 6 7
16 15 15 15 15 14 14 14 13 13 13 13 13 12 12 13 13 13 13 13 13 13 13 12 12 11 11 11 11 11 11 10 10 10 10 11 10 10 10 10 10 11 11 10 10 9 9 9 9 9 9 9 8 8 8 8 7 7 7 7 6 6 6 6 6 6 6 6 6 6 6 6 6 6 6 6 6 6 6 5 5 5 5 5 5 6
14 14 14 14 14 14 14 13 13 13 13 13 13 13 13 13 14 14 13 13 13 12 12 12 11 11 11 11 12 11 11 10 10 10 10 11 10 9 9 10 10 11 10 10 9 9 9 8 8 8 8 8 7 7 7 7 7 7 6 6 5 5 5 5 5 5 5 6 6 6 6 6 6 6 5 5 5 5 5 4 4 4 4 4 4 5
13 13 13 13 13 13 14 13 13 13 13 14 14 13 13 13 14 13 13 12 12 12 11 11 11 12 12 12 12 11 11 11 10 10 10 11 10 9 9 10 10 10 10 9 9 8 8 8 7 7 7 7 7 7 6 6 6 6 6 5 5 5 4 5 5 5 5 5 5 6 6 6 6 6 5 5 5 5 4 4 4 4 3 3 3 3
12 12 12 12 13 13 14 14 14 14 14 14 14 14 13 13 13 13 12 12 11 11 11 11 12 12 12 11 11 11 11 10 10 10 10 11 10 9 9 9 10 9 9 8 8 7 7 7 6 6 6 6 6 6 6 6 6 6 5 5 5 4 4 4 5 5 5 5 5 6 6 6 6 6 5 5 5 5 4 4 4 4 3 3 3 3
12 13 13 13 14 14 15 15 15 14 14 14 13 13 12 12 12 12 11 11 11 11 12 12 12 12 12 11 11 10 11 10 10 10 10 10 10 9 9 9 9 9 8 8 7 7 6 6 6 6 6 6 6 6 6 6 6 5 5 5 5 5 5 5 5 5 5 5 6 6 6 6 6 6 6 6 6 5 5 5 4 4 4 4 4 4
13 14 14 14 14 15 15 15 14 14 13 12 12 11 11 11 11 11 11 11 11 12 12 12 12 11 11 11 10 10 10 10 10 10 10 10 9 8 9 9 8 8 8 7 7 6 6 5 5 5 5 6 6 6 6 6 5 5 5 5 5 5 5 5 5 5 6 6 6 6 7 7 7 7 7 6 6 6 6 5 5 5 5 5 5 5
14 14 15 14 14 14 14 14 13 12 11 11 11 10 10 10 11 11 11 12 12 12 12 12 11 11 10 11 11 10 10 10 10 10 10 10 9 8 8 8 8 8 7 7 6 6 5 5 5 5 5 5 5 5 5 5 6 6 6 6 6 6 6 6 6 6 6 7 7 7 7 7 7 7 7 7 7 7 6 6 6 6 6 6 6 6
14 14 14 13 13 13 12 12 11 10 10 10 10 10 10 11 11 11 12 12 12 12 11 11 10 10 10 11 11 10 9 9 9 9 9 9 8 8 8 7 7 7 7 7 6 6 5 4 4 5 5 5 5 5 5 5 6 6 6 6 6 6 6 7 7 7 7 7 7 8 8 8 8 8 8 8 8 8 7 7 7 7 7 7 7 7
13 13 13 13 12 12 11 10 10 10 11 10 10 10 11 11 11 11 12 12 11 11 10 10 10 10 10 10 11 10 9 9 9 8 8 8 8 8 7 7 7 7 7 7 6 5 5 4 4 5 5 5 5 5 5 5 5 6 6 6 7 7 7 7 8 8 8 8 8 8 8 8 8 9 9 9 9 8 8 8 8 8 8 8 8 8
13 13 13 12 12 11 11 11 11 11 11 11 11 11 11 12 12 11 11 11 11 10 10 10 10 10 10 10 10 10 9 9 9 9 8 9 8 8 7 7 7 7 7 7 6 5 4 4 4 4 5 5 5 5 5 5 5 6 6 6 7 7 8 8 8 9 9 9 9 9 9 9 9 9 9 9 9 9 9 9 9 9 9 9 9 9
13 13 13 12 12 11 11 11 11 11 11 11 12 12 12 12 12 12 12 11 11 10 10 10 10 10 10 10 10 10 9 9 9 9 8 9 9 8 7 7 7 7 7 7 6 5 4 4 4 4 5 5 5 5 5 5 5 6 6 6 7 7 8 8 9 9 9 9 10 10 10 10 10 10 10 10 10 10 10 10 10 10 10 10 10 10
12 12 12 12 12 11 11 11 11 11 11 12 12 12 12 11 11 11 11 10 10 10 10 10 9 9 10 10 10 10 9 9 9 9 8 9 9 9 7 7 7 7 7 7 6 5 5 4 4 4 5 5 5 5 5 5 6 6 6 7 7 8 8 9 9 9 10 10 10 10 10 10 10 11 11 11 11 11 11 11 11 11 11 11 11 11
12 12 12 12 11 11 11 11 11 11 11 11 11 11 11 11 10 10 10 10 10 10 10 10 10 10 10 10 10 10 9 9 9 9 8 8 9 9 8 7 7 7 7 7 6 5 4 4 4 4 4 5 5 5 5 6 6 7 7 8 8 9 9 9 10 10 10 10 10 11 11 11 11 11 11 11 11 11 12 12 12 12 12 12 12 13
11 11 11 11 11 11 11 10 10 11 11 11 11 11 10 10 10 10 11 11 11 10 10 10 10 10 10 10 10 10 9 9 9 9 8 8 9 9 8 8 8 8 8 7 6 5 4 4 4 4 5 5 5 6 6 6 7 7 8 9 9 9 10 10 10 10 10 11 11 11 11 11 12 12 12 12 12 12 12 12 13 13 13 13 14 14
11 11 11 11 11 10 10 10 10 10 10 11 11 11 11 11 11 11 11 11 11 11 10 10 10 10 10 10 10 10 10 9 9 9 9 8 9 9 8 8 8 8 8 7 7 6 5 5 4 5 5 5 6 6 7 7 7 8 8 9 9 10 10 10 10 10 11 11 11 11 12 12 12 12 13 13 13 13 13 13 13 13 14 14 14 14
10 10 10 10 10 10 10 10 10 10 11 11 11 11 11 11 11 11 11 11 11 11 10 10 10 10 10 10 10 10 10 9 9 9 9 8 9 9 8 8 8 8 8 8 7 6 5 5 5 5 5 6 6 7 7 8 8 8 9 9 9 10 10 10 10 10 10 11 11 11 12 12 12 13 13 13 13 13 13 14 14 14 15 15 15 15
10 10 10 10 10 10 10 10 10 11 11 11 11 11 10 11 11 11 11 11 11 10 10 10 10 10 10 10 11 11 10 10 10 9 9 9 9 9 8 8 8 8 8 7 6 6 5 5 5 5 5 6 7 8 8 8 8 8 8 9 9 9 9 9 10 10 10 10 11 11 11 12 12 13 13 13 13 14 14 14 15 15 15 15 15 15
10 9 9 9 9 10 10 10 10 11 11 11 11 11 10 11 11 11 11 10 10 10 10 10 10 10 10 11 11 11 11 10 10 9 9 9 9 9 8 8 8 8 9 8 6 5 4 5 5 5 5 7 8 9 8 8 7 7 8 8 8 9 9 9 9 9 10 10 10 11 11 11 12 12 13 13 13 13 14 14 15 15 16 16 16 16
9 9 9 9 9 9 9 10 10 10 10 10 10 10 10 10 10 11 10 10 10 10 10 10 10 10 10 10 11 11 10 10 10 9 9 9 9 9 9 9 8 9 9 9 8 6 5 5 5 5 6 7 8 9 8 7 7 7 8 8 8 8 9 9 9 9 9 10 10 10 11 11 11 12 12 12 13 13 13 14 15 15 16 16 16 16
8 8 8 9 9 9 9 9 9 9 10 10 10 10 10 10 10 10 10 10 10 10 10 10 10 10 10 10 10 10 11 11 10 10 10 10 10 10 9 9 9 9 9 9 9 8 7 6 5 5 5 6 8 8 8 7 7 7 7 8 8 8 8 8 8 9 9 9 10 10 10 11 11 11 12 12 12 13 13 14 14 15 15 16 16 16
8 8 8 8 8 8 8 8 8 9 9 9 9 9 9 9 9 10 10 10 10 10 10 10 10 10 10 10 10 10 11 11 11 10 10 10 10 10 10 10 10 9 9 9 8 8 8 7 6 4 4 5 7 8 7 7 7 7 8 8 8 8 8 8 8 8 8 9 9 10 10 10 10 11 11 11 12 12 13 13 14 14 15 15 15 16
8 8 8 8 7 7 7 7 8 8 8 9 9 9 9 10 10 10 10 10 10 10 10 10 10 10 10 10 10 10 11 12 11 11 11 11 11 11 10 10 10 10 9 9 9 8 8 7 6 5 4 4 6 7 7 7 7 7 8 8 8 7 8 8 8 8 8 9 9 9 9 10 10 10 11 11 11 12 12 13 13 13 14 14 14 15
7 7 7 7 7 7 7 7 7 8 8 9 9 10 10 10 10 10 11 10 10 10 10 10 10 10 10 10 10 11 12 12 12 11 11 11 11 11 11 10 10 10 10 10 9 9 9 8 7 6 6 5 5 6 7 8 8 8 8 8 8 7 7 7 7 8 8 8 9 9 9 9 10 10 10 11 11 12 12 12 13 13 13 13 14 14
6 6 6 6 6 6 7 7 7 8 8 9 10 10 10 10 10 10 10 10 10 10 10 10 10 10 10 10 11 12 13 13 12 12 11 11 11 11 11 10 10 10 10 10 10 10 9 9 8 7 6 6 5 5 6 7 8 8 8 8 8 7 7 7 7 8 8 8 9 9 9 9 10 10 11 11 11 12 12 12 13 13 13 13 14 14
5 5 5 6 6 6 6 7 7 8 8 9 9 9 9 9 10 10 10 10 10 10 10 10 10 10 11 11 11 12 13 13 12 12 11 11 11 11 11 10 10 10 10 10 10 10 10 9 8 8 7 6 6 6 6 7 7 8 8 8 8 8 8 7 8 8 8 8 9 9 9 10 10 10 11 11 11 12 12 13 13 13 14 14 14 14
5 5 6 6 6 6 7 7 7 7 8 8 8 9 9 9 9 10 10 10 10 10 10 10 10 11 11 11 12 12 13 13 12 12 12 11 11 11 11 11 10 10 11 11 11 11 11 10 10 9 8 7 7 7 7 7 7 7 8 9 9 8 8 8 8 8 8 9 9 10 10 10 10 11 11 11 12 12 13 13 13 14 14 14 14 15
6 6 6 7 7 7 7 7 7 7 8 8 8 8 9 9 10 10 10 11 11 11 11 11 11 11 11 11 12 12 13 13 13 13 12 12 12 11 11 11 11 11 11 11 11 11 11 11 11 10 10 9 8 7 7 7 7 8 8 8 9 9 8 8 8 8 9 9 10 10 10 11 11 11 12 12 12 13 13 13 14 14 15 15 15 15
6 6 7 7 7 7 7 7 7 8 8 8 8 9 9 9 10 10 11 11 11 11 12 12 12 12 12 12 12 12 13 13 13 13 13 13 12 12 12 12 12 12 12 12 12 11 11 11 11 11 11 11 10 9 8 7 8 8 8 8 8 9 9 9 9 9 10 10 10 11 11 11 12 12 12 12 13 13 14 14 15 15 16 16 16 16
6 6 7 7 7 7 7 7 8 8 8 8 9 9 9 10 10 11 11 11 12 12 12 12 13 13 13 13 13 13 13 14 14 14 14 13 13 13 13 13 13 13 13 13 12 12 12 12 12 12 12 12 11 10 8 8 8 9 9 9 9 9 10 10 10 10 10 10 11 11 11 12 12 12 12 13 13 14 14 15 15 16 16 17 17 17
5 6 6 6 7 7 7 7 8 8 8 8 9 9 10 10 11 11 11 12 12 12 13 13 13 13 13 13 13 13 14 14 14 14 14 14 14 14 13 13 13 13 13 13 13 13 12 12 13 13 13 13 13 12 10 8 9 9 10 10 10 10 9 10 10 10 10 11 12 12 12 12 12 12 12 13 13 14 14 15 15 16 16 17 18 18
4 5 5 6 6 6 7 7 7 8 8 8 9 9 10 11 11 11 12 12 12 13 13 14 14 14 13 13 13 13 14 15 15 15 15 15 14 14 14 14 14 14 14 14 14 14 14 13 13 13 14 14 14 13 11 10 9 10 11 12 12 11 10 10 11 11 11 12 12 12 12 12 12 12 13 13 13 14 14 15 15 16 17 17 18 19
4 4 5 5 6 6 7 7 7 8 8 9 9 10 10 11 11 12 12 12 13 13 14 14 14 14 13 13 13 13 14 15 15 15 15 15 15 15 15 15 15 15 15 15 15 15 15 15 15 15 15 14 14 14 13 11 10 10 11 12 13 13 12 12 12 12 12 13 13 13 13 13 13 13 13 13 13 14 14 15 16 16 17 17 18 18
4 4 5 5 6 6 7 7 7 8 8 8 9 10 10 11 12 12 12 12 13 13 14 14 14 14 13 13 12 13 14 15 16 16 16 16 16 15 16 16 16 16 16 16 16 16 16 16 15 15 15 15 15 15 13 12 12 11 11 13 13 14 13 13 13 13 13 13 13 13 13 13 13 13 14 14 14 14 15 15 16 16 16 16 17 17
5 5 5 6 6 6 7 7 7 8 8 8 9 9 10 11 12 12 12 13 13 13 14 15 15 14 14 13 13 13 14 14 15 16 17 16 16 16 16 16 16 16 16 16 17 17 17 17 17 16 16 16 16 15 14 13 12 12 13 14 14 14 13 13 13 13 14 14 14 14 13 13 13 14 14 15 15 16 16 16 16 16 15 15 14 15
5 6 6 6 6 7 7 7 7 8 8 8 9 9 10 11 12 12 13 13 13 14 14 15 15 15 14 14 13 14 14 15 16 16 17 17 17 16 16 17 17 17 17 17 18 18 18 18 18 17 17 17 16 16 14 13 12 13 14 14 15 14 14 13 13 14 14 15 14 14 14 14 14 14 15 16 17 17 17 17 16 15 14 13 12 12
6 7 7 7 7 8 8 8 8 8 8 8 9 9 10 11 12 12 13 13 14 14 15 15 15 15 15 14 14 14 15 15 16 16 17 17 17 17 17 17 17 17 18 18 18 19 19 19 19 18 18 17 16 16 15 14 13 13 14 15 15 14 14 13 13 14 14 15 15 14 14 14 14 15 16 18 18 18 18 18 17 16 15 13 12 12
7 7 8 8 8 8 9 9 9 9 9 9 9 10 11 11 12 12 13 14 14 15 15 15 15 15 15 15 14 15 15 15 16 16 17 17 18 18 18 18 18 18 18 19 19 19 20 20 20 19 18 16 16 15 15 14 14 14 14 14 14 14 14 13 14 14 15 15 15 14 14 14 15 16 17 18 19 20 19 19 18 17 16 14 13 13
8 8 8 8 9 9 9 9 9 9 9 10 10 10 11 11 12 13 13 14 14 15 15 16 16 16 16 15 15 15 15 16 16 16 16 17 18 18 18 18 18 18 19 19 20 20 20 21 21 19 17 16 15 15 15 15 14 14 13 13 13 13 14 14 14 15 15 15 15 14 14 14 15 17 18 19 20 20 20 20 19 18 17 16 15 14
Wind_Direction
268 268 267 264 260 259 260 265 270 273 275 275 275 276 278 279 278 276 271 265 258 253 250 249 249 250 253 255 258 261 264 267 268 270 271 272 272 273 273 273 273 273 273 273 273 274 274 274 275 275 276 276 276 276 277 276 276 276 276 275 274 274 273 272 271 271 271 271 272 273 276 279 281 282 281 281 279 277 276 275 275 276 276 277 277 276
269 268 264 261 259 260 264 269 273 273 273 274 275 276 277 277 275 271 265 258 252 249 248 248 249 251 255 259 263 268 272 275 277 279 279 279 279 279 278 278 278 277 277 276 276 275 275 275 275 276 276 276 277 277 277 277 277 277 277 276 276 276 276 275 275 274 274 275 276 277 279 280 281 282 282 281 280 278 278 278 279 280 281 282 281 280
267 264 262 261 262 265 269 272 273 271 271 272 274 275 276 274 270 265 258 252 248 247 247 248 251 254 257 262 267 272 276 279 281 282 283 283 283 282 282 282 281 281 280 280 279 278 278 277 277 277 277 277 278 278 279 279 279 278 278 278 278 278 278 278 278 277 277 278 279 280 280 280 280 281 281 280 279 279 279 280 282 283 284 284 283 282
263 261 261 264 267 270 271 272 271 270 270 271 273 273 273 270 264 258 251 245 244 246 248 250 252 256 259 264 269 274 278 280 282 283 283 283 283 283 283 283 283 283 283 283 282 281 280 280 279 279 279 279 279 280 280 281 281 281 281 280 280 280 279 279 279 278 278 279 279 279 278 278 278 279 279 279 279 279 280 281 282 283 283 283 283 281
260 261 263 266 268 270 270 268 267 268 269 270 271 271 269 264 257 251 247 244 242 244 248 251 254 257 262 266 271 275 278 280 281 282 282 282 282 282 283 283 284 284 284 284 283 283 282 282 282 282 282 282 282 282 282 282 282 282 282 281 281 280 279 279 278 277 277 276 276 276 276 275 275 275 276 277 278 279 280 280 281 281 281 281 280 279
261 262 264 266 266 267 266 265 265 267 269 269 269 266 262 256 251 247 244 244 243 245 248 252 255 260 264 269 274 277 279 280 280 281 281 281 281 281 282 283 284 284 284 284 283 283 283 284 284 284 284 284 284 284 283 282 282 281 281 281 281 280 279 277 276 275 275 274 273 273 273 272 272 273 273 274 276 277 278 279 279 280 279 279 278 277
261 263 264 264 263 263 263 263 264 266 267 267 265 260 254 250 246 244 243 244 246 248 251 254 258 262 267 272 275 278 279 279 279 279 279 279 279 280 281 282 283 283 283 282 282 282 283 284 284 284 284 285 285 284 283 282 281 280 280 280 280 279 278 277 275 274 273 272 272 271 271 271 271 271 272 273 273 274 275 276 277 277 277 277 276 275
260 261 261 261 260 260 260 261 263 264 263 262 258 254 249 246 245 244 245 247 249 251 254 258 261 266 270 273 276 277 277 277 277 276 276 276 276 277 278 279 280 279 279 279 279 280 281 282 283 283 284 284 284 284 283 282 281 281 280 279 278 277 276 275 275 274 273 272 272 272 272 272 272 272 273 274 274 274 275 275 275 275 275 275 274 273
256 258 259 259 258 257 259 260 261 259 257 253 250 247 246 246 246 247 249 251 253 255 258 262 266 270 273 275 276 275 275 274 273 272 272 272 272 273 274 275 276 276 276 277 278 280 281 282 283 284 284 285 285 285 285 284 283 282 281 280 278 276 275 275 274 274 274 274 274 274 274 275 276 277 277 278 278 278 278 276 275 274 273 273 272 270
253 254 255 256 256 255 256 257 257 254 249 245 242 242 243 245 249 252 254 255 258 262 264 268 271 275 276 276 275 273 272 270 269 269 270 271 272 273 274 275 276 277 278 279 281 283 285 285 286 287 288 289 289 289 289 289 288 286 284 282 279 277 276 276 275 275 275 275 275 276 277 278 280 281 283 283 284 283 282 280 277 275 273 272 269 265
251 251 250 251 252 252 251 251 249 246 243 239 240 242 245 246 249 253 257 260 264 267 270 273 275 276 277 276 274 272 270 270 271 273 275 276 277 279 279 280 280 281 282 283 285 287 288 289 290 291 292 293 294 294 294 293 292 290 288 285 283 280 278 277 276 276 276 276 277 278 280 281 283 284 285 287 287 286 285 282 279 277 274 271 265 258
248 248 247 247 248 248 246 243 242 241 239 238 238 240 242 248 252 254 255 261 266 270 273 276 277 277 275 273 272 271 272 274 278 282 284 284 284 285 286 287 286 286 286 287 289 290 291 292 293 294 295 296 297 298 297 297 296 295 293 290 287 285 282 280 279 278 278 278 278 280 281 283 284 286 287 287 287 287 285 283 281 278 274 268 260 251
245 244 243 243 244 244 243 240 238 237 238 240 241 243 245 251 256 257 256 260 265 268 272 275 276 276 273 271 271 271 274 278 282 285 286 286 286 287 289 290 289 289 289 290 291 292 293 293 294 295 297 297 298 298 299 299 299 298 296 295 292 289 286 284 281 281 280 280 280 280 281 283 284 285 285 286 286 286 285 284 282 279 273 265 255 246
240 239 239 239 240 240 240 240 240 240 242 246 249 251 254 257 259 259 259 260 263 266 269 270 270 270 270 269 270 272 275 278 281 281 281 280 282 284 287 287 286 287 288 290 291 292 292 293 294 295 296 296 297 298 299 299 300 300 299 298 295 293 289 286 284 282 281 280 280 280 281 281 282 282 283 283 284 285 285 285 283 280 274 265 256 246
236 235 235 236 238 239 239 241 244 246 249 252 254 255 255 256 257 258 260 261 262 264 264 264 263 264 264 266 269 272 274 276 278 278 276 275 277 281 283 283 283 283 285 287 289 289 289 290 291 292 292 292 293 294 296 297 298 299 299 298 296 293 290 286 283 282 281 280 280 280 279 279 279 279 280 280 281 282 283 285 285 282 276 269 261 253
233 233 234 236 238 240 242 244 246 248 251 253 255 255 254 255 256 259 260 261 261 261 260 259 259 260 260 262 266 269 272 273 273 272 271 272 275 279 280 280 280 281 282 283 284 284 284 285 285 286 286 286 287 288 290 292 294 295 296 296 295 292 288 284 282 280 279 278 279 278 278 278 278 278 278 278 278 278 279 281 281 281 277 272 266 260
231 232 234 237 240 243 246 248 249 250 252 253 255 255 255 256 257 258 259 259 258 258 258 258 259 261 261 260 261 265 268 269 269 268 268 270 274 278 277 277 278 278 279 279 279 278 278 279 279 279 279 280 281 282 284 287 289 290 291 292 291 288 285 282 279 278 277 277 277 277 277 276 276 277 277 276 276 275 275 275 275 275 273 269 266 261
233 236 238 241 243 246 249 251 252 253 254 253 254 254 253 253 252 253 254 254 254 254 255 255 256 259 262 263 261 260 263 264 265 266 267 269 272 274 273 273 273 274 274 274 273 273 272 272 272 273 273 274 275 278 280 282 285 286 288 287 286 285 283 281 279 278 276 276 276 275 276 276 276 276 276 275 275 274 273 272 271 269 268 266 263 260
240 242 244 245 247 249 251 253 254 254 253 252 250 249 247 246 245 246 246 247 247 247 248 250 251 253 257 258 257 256 258 260 262 263 264 266 268 269 269 269 270 270 270 269 267 266 266 266 266 266 267 269 272 275 278 280 282 283 284 284 284 283 281 280 278 277 276 275 275 275 276 276 277 277 276 276 276 275 273 271 269 268 266 264 262 259
247 249 249 250 250 251 252 253 253 252 250 247 243 241 240 239 238 239 239 240 241 242 243 245 246 248 251 254 255 254 255 257 259 260 261 262 261 263 264 265 266 266 265 263 262 262 260 260 260 261 263 266 269 272 275 277 279 281 282 283 284 284 283 281 280 278 277 276 276 276 276 277 278 278 278 278 276 275 273 271 269 267 265 263 261 259
251 252 253 253 251 250 250 251 249 245 242 239 237 235 235 235 234 235 235 237 238 240 241 243 244 246 249 253 255 255 253 255 256 257 258 258 256 256 258 260 261 261 259 259 258 258 257 256 256 257 260 264 267 271 273 276 278 281 283 285 285 286 285 283 282 281 280 279 278 278 278 278 278 278 278 278 277 275 273 271 268 266 264 262 260 259
251 252 252 251 249 247 246 243 241 239 237 236 235 235 235 235 235 235 236 237 238 239 240 241 243 246 248 250 254 255 253 253 253 253 254 252 250 249 252 254 256 255 254 256 257 257 256 255 256 259 262 266 269 272 274 277 280 283 286 287 288 288 287 287 285 284 283 282 281 280 280 279 278 278 277 277 276 275 273 271 270 268 265 263 260 258
248 247 247 248 246 243 241 238 237 237 236 235 235 235 236 236 237 238 239 240 241 242 244 245 246 247 247 248 251 253 252 250 250 250 250 245 244 245 246 248 249 249 250 254 257 258 258 258 260 264 269 272 275 276 278 281 285 287 290 290 291 290 290 288 287 286 285 284 283 282 281 280 279 278 277 276 276 276 275 273 272 270 268 266 263 262
246 245 246 246 245 243 240 238 237 237 237 236 236 237 238 238 239 241 243 243 245 246 246 246 247 247 246 247 248 248 248 246 245 245 244 239 239 241 243 243 242 244 248 252 256 259 261 264 267 271 276 277 278 280 282 285 288 291 292 292 292 291 290 289 288 287 287 286 285 284 283 281 280 279 278 277 276 276 275 275 274 272 270 268 266 264
247 246 246 246 245 244 242 240 239 239 239 239 239 239 240 241 242 243 245 246 247 247 246 246 246 245 244 244 245 245 244 241 240 239 237 234 236 238 239 237 236 239 246 252 256 259 264 268 273 276 278 277 278 280 283 286 290 292 292 292 292 290 290 288 288 287 287 286 285 285 284 283 282 280 279 278 277 276 276 275 274 273 272 271 268 266
248 247 246 246 245 245 244 242 242 241 241 241 242 242 243 244 244 245 246 247 247 247 247 247 246 244 243 243 243 241 240 237 236 235 234 231 232 233 234 232 232 236 245 252 255 258 262 268 273 273 273 271 273 277 282 286 289 291 292 291 291 290 289 287 287 287 286 286 286 285 284 284 283 282 281 280 279 278 276 276 275 274 274 273 271 270
246 245 244 244 244 244 244 243 242 242 243 243 244 244 244 244 245 247 248 248 248 248 247 247 246 244 243 242 241 239 237 236 235 235 235 232 229 227 228 228 229 234 241 247 251 254 258 264 266 265 262 264 269 275 280 285 288 290 290 290 289 289 288 287 287 286 286 286 285 285 284 284 283 282 281 281 280 279 278 277 276 275 275 274 273 273
244 244 243 243 244 244 243 243 243 243 244 244 245 244 244 245 246 248 250 249 249 249 248 247 244 242 241 240 240 239 238 236 236 237 237 235 227 222 224 225 227 231 237 242 246 250 254 257 256 254 255 261 268 275 279 284 286 288 288 287 287 287 287 287 287 286 286 286 285 285 284 283 283 282 282 281 281 280 280 279 278 277 276 275 275 275
245 245 245 245 244 244 244 243 243 243 245 245 245 245 245 246 247 248 250 250 250 250 249 246 243 240 238 238 239 240 239 238 238 239 239 235 227 223 225 224 226 230 234 238 243 247 250 249 247 248 253 263 270 275 279 283 284 285 284 284 285 285 286 286 286 286 285 285 284 284 283 283 283 282 282 282 282 281 281 280 279 278 277 277 277 277
245 246 246 246 246 245 244 243 243 243 245 247 247 247 246 247 248 249 250 251 251 250 248 245 242 239 237 237 239 240 240 241 241 240 240 234 229 226 226 225 227 229 232 236 242 247 247 243 241 245 257 268 274 277 280 282 283 282 282 282 283 284 285 285 286 285 285 284 284 283 283 283 283 283 283 282 282 281 281 280 280 279 278 278 278 277
243 244 245 246 246 245 243 243 243 244 246 248 250 250 249 249 249 251 252 252 252 250 249 246 243 240 239 238 237 237 239 241 242 241 240 236 233 230 229 227 228 230 232 236 242 248 248 241 240 248 263 273 277 279 280 282 282 281 281 282 282 283 284 285 286 286 286 285 285 284 284 283 283 283 283 283 282 282 281 280 280 279 279 279 278 278
241 243 244 245 245 244 243 243 244 245 247 250 252 252 252 250 250 252 253 253 252 251 249 247 245 243 242 241 240 238 239 242 243 242 240 238 237 235 232 230 230 233 235 238 243 247 249 248 249 256 268 274 277 279 281 283 283 282 282 282 282 283 284 285 285 285 286 286 285 285 284 284 284 283 283 283 282 282 282 281 280 280 280 280 280 279
242 244 244 245 244 244 244 245 246 247 249 251 253 253 253 252 252 253 254 254 253 251 249 247 245 244 243 242 241 240 240 242 243 243 242 240 240 239 236 234 234 236 238 241 246 250 252 255 256 259 266 270 274 277 280 282 281 280 280 281 281 282 283 284 284 284 284 283 283 283 283 283 283 283 283 283 283 283 282 282 282 282 283 283 283 283
243 244 244 245 246 246 246 247 248 250 252 253 254 255 255 255 254 254 254 253 252 251 249 247 245 244 242 240 239 239 240 242 243 243 242 242 242 240 238 237 237 239 241 243 247 251 254 256 255 248 243 258 267 271 274 277 277 277 278 278 279 280 281 282 282 281 281 281 281 281 282 282 283 283 284 284 284 284 284 284 284 285 286 287 287 287
237 238 239 241 243 245 247 248 249 250 251 252 253 254 255 254 253 253 252 251 250 249 248 246 244 243 241 239 237 237 239 242 244 243 242 242 242 241 240 240 240 242 243 245 247 251 254 256 255 248 235 243 260 268 271 272 273 274 276 276 276 277 278 279 280 279 279 278 278 279 281 282 283 284 284 285 286 286 286 287 287 288 288 289 289 289
230 230 231 233 235 237 239 240 241 242 243 245 248 250 251 250 250 250 249 249 248 247 246 246 245 244 242 241 239 238 240 244 245 244 243 243 243 243 242 241 242 244 246 248 251 253 255 257 259 256 251 246 254 265 271 271 271 271 272 273 273 274 275 277 277 277 277 277 278 279 280 282 283 284 285 286 287 287 288 289 290 290 291 290 290 290
232 232 232 232 233 233 233 234 234 235 235 238 242 245 247 248 249 249 249 249 248 247 246 246 245 245 243 242 241 241 243 247 249 247 245 245 244 244 244 243 243 245 248 251 254 256 259 261 261 262 262 258 256 259 266 271 272 271 271 271 272 274 275 276 276 276 276 278 279 280 281 282 283 284 285 286 287 288 289 290 291 291 291 291 291 292
243 245 244 243 242 240 239 238 237 237 238 240 243 246 249 251 253 253 253 253 251 249 247 246 245 245 244 243 242 244 246 249 250 249 247 246 245 246 246 244 244 246 248 252 256 260 263 265 267 267 265 263 260 259 262 267 272 273 273 274 275 276 276 277 277 277 277 278 279 280 280 281 282 282 283 284 286 287 288 290 290 291 291 292 292 293
250 252 253 253 252 250 248 247 246 246 246 247 249 251 254 256 258 258 258 257 255 254 251 249 247 245 244 244 244 245 247 249 251 251 249 247 246 246 247 247 247 247 250 253 257 261 265 269 272 274 274 271 268 265 263 264 265 268 273 276 276 276 275 276 276 277 278 279 280 280 281 281 281 282 282 283 284 285 287 288 289 290 291 292 293 293
248 250 252 254 256 256 255 254 253 253 253 253 255 256 258 259 259 260 261 260 259 258 256 254 252 249 248 246 246 246 248 250 251 252 251 250 249 248 249 250 250 251 252 255 258 262 266 271 275 277 278 278 275 270 267 264 261 261 265 270 273 274 274 274 275 276 278 279 279 280 281 282 282 283 283 284 285 285 286 286 287 288 289 289 290 291
245 247 250 255 258 259 258 258 257 257 256 256 257 257 257 257 256 257 258 260 260 260 259 257 255 253 251 249 248 248 249 250 251 252 252 252 252 251 251 252 253 254 255 257 260 263 267 271 276 279 280 280 278 274 269 265 262 260 259 259 263 268 271 271 272 273 276 276 277 278 279 281 282 283 284 284 285 285 285 285 285 286 287 287 287 287
242 245 251 256 260 261 261 260 259 258 258 257 257 256 255 254 254 253 253 253 254 255 256 256 255 254 254 253 252 251 251 251 251 252 253 253 253 253 253 253 254 255 257 259 262 264 267 270 274 278 280 281 280 278 273 267 264 263 261 258 259 263 269 269 269 269 271 273 275 277 278 279 280 281 282 283 284 285 285 286 286 286 286 287 287 287
242 247 253 258 261 263 262 261 260 259 258 257 256 255 254 254 253 252 251 250 250 250 251 252 253 253 253 252 253 254 254 254 253 253 253 253 254 254 254 255 255 257 259 261 263 266 268 270 273 276 278 279 280 280 277 269 266 266 266 264 263 264 265 266 268 269 270 272 274 276 277 279 279 280 281 281 282 283 284 285 286 287 287 287 288 288
247 251 256 259 262 264 263 262 261 260 259 257 256 255 255 255 254 253 251 250 249 249 250 251 252 252 252 250 249 251 253 255 256 255 254 254 254 254 255 256 256 258 259 262 264 266 269 270 272 274 276 278 279 280 279 273 267 265 267 269 268 266 262 263 266 270 271 272 274 275 276 278 279 279 279 280 280 281 283 285 286 287 287 288 287 287
257 259 261 263 265 265 264 263 261 260 259 257 256 256 257 257 256 255 254 252 252 251 251 252 252 253 252 249 247 248 250 254 256 255 255 255 255 255 256 256 258 259 260 262 263 266 268 271 273 274 276 277 278 279 280 276 270 265 265 268 269 269 268 268 269 270 271 272 273 274 276 277 277 277 277 277 278 280 282 283 284 284 284 285 285 284
265 267 267 267 267 267 266 264 263 261 259 257 256 257 258 259 259 258 257 256 255 255 255 255 256 255 254 252 249 247 248 251 254 255 255 255 255 255 256 257 258 260 262 263 264 266 267 269 272 275 276 278 278 279 279 278 274 268 264 265 267 269 270 271 271 271 271 271 272 274 275 276 276 276 276 276 277 278 280 281 281 281 281 280 280 280
270 271 272 272 271 270 269 267 266 264 262 259 258 258 260 261 262 261 260 259 258 258 258 259 259 259 258 256 252 249 248 249 252 254 256 256 255 255 256 257 259 261 262 264 266 267 268 269 271 273 275 277 278 279 278 277 274 269 266 264 265 267 268 269 270 270 271 272 272 274 275 276 276 276 277 277 278 278 280 281 281 280 280 279 279 278
275 276 277 278 278 277 275 274 273 271 269 265 262 262 263 264 265 264 263 262 261 260 260 261 261 261 260 259 256 253 251 249 250 253 256 257 257 256 256 257 259 260 262 264 266 267 269 270 271 272 274 276 277 278 277 275 272 268 265 264 265 266 266 265 265 267 269 270 272 274 275 276 278 279 281 282 282 282 282 284 284 284 285 285 285 283
281 281 282 283 284 284 283 283 282 281 278 274 271 268 267 269 269 268 266 265 263 263 262 262 262 262 261 260 258 255 253 251 250 251 253 255 257 257 257 258 258 259 260 262 264 266 268 270 271 272 273 275 277 278 277 275 270 266 264 264 265 266 266 264 263 264 266 268 270 273 275 277 280 283 285 288 288 287 287 288 289 291 293 295 296 296
284 284 285 286 286 286 286 287 287 286 284 281 277 274 273 273 272 271 269 267 266 265 264 263 263 262 261 259 257 255 253 251 250 249 250 252 254 255 256 257 257 258 259 260 262 264 267 269 270 272 273 275 277 278 278 275 271 267 264 264 265 266 266 265 264 264 266 267 270 272 274 278 282 285 288 290 291 290 289 290 292 294 297 300 302 302
283 284 285 284 284 284 284 285 285 285 283 282 280 277 275 274 273 272 270 268 267 266 265 264 263 262 260 259 256 255 253 252 249 247 247 249 250 252 254 255 256 256 258 259 261 263 266 268 271 272 274 276 277 276 275 274 272 269 266 265 264 265 266 266 266 267 268 269 270 272 275 279 283 287 290 291 292 291 290 291 293 296 298 301 303 303